Flag for U.S.A. Weather past 2 weeks in Dayton, Ohio, U.S.A.

Now
65 °F

Sunny.


Feels Like: 65 °F
Forecast: 53 / 83 °F
Wind: 2 mph from Southwest

Location: Dayton / Wright-Patterson Air Force Base

Current Time: Oct 1, 2014 at 8:11:32 PM

Latest Report: Oct 1, 2014 at 6:58 PM


Visibility: 10 mi

Pressure: 30.01 "Hg

Humidity: 64%

Dew point: 52 °F

Location of DaytonLocation

Historic Weather in Dayton — Graph

°F

Dayton temperature yesterday

Maximum temperature yesterday: 64 °F (at 11:58 AM)
Minimum temperature yesterday: 49 °F (at 10:58 PM)
Average temperature yesterday: 57 °F

Past Weeks' High & Low Weather Summary

 TemperatureHumidityPressure
High83 °F (Sep 29, 3:58 PM)100% (Sep 17, 8:58 AM)30.39 "Hg (Sep 17, 8:58 AM)
Low42 °F (Sep 23, 7:58 AM)28% (Sep 24, 5:58 PM)29.78 "Hg (Sep 21, 4:58 AM)
Average61 °F71%30.13 "Hg
* Reported Sep 16 6:58 PM — Oct 1 6:58 PM, Dayton, Weather by CustomWeather, © 2014

Note: Actual official high and low records may vary slightly from our data, if they occured in-between our weather recording intervals... More about our weather records

Advertising

Dayton weather history for previous 24 hours

 ConditionsComfort  
Time TempWeatherWind HumidityBarometerVisibility
6:58 PM
Oct 1
65 °FSunny.2 mph64%30.01 "Hg10 mi
5:58 PM68 °FSunny.3 mph54%30.01 "Hg10 mi
4:58 PM67 °FSunny.No wind57%30.02 "Hg10 mi
3:58 PM66 °FSunny.2 mph61%30.03 "Hg10 mi
2:58 PM63 °FScattered clouds.6 mph72%30.04 "Hg10 mi
1:58 PM59 °FMostly cloudy.5 mph81%30.06 "Hg7 mi
12:58 PM57 °FFog.2 mph86%30.08 "Hg2 mi
11:58 AM55 °FFog.3 mph93%30.08 "Hg1 mi
10:58 AM54 °FFog.7 mph97%30.07 "Hg1 mi
9:58 AM54 °FFog.2 mph100%30.06 "Hg1 mi
8:58 AM52 °FFog.5 mph100%30.05 "Hg1 mi
7:48 AM50 °FFog.2 mph100%30.01 "Hg0 mi
6:58 AM49 °FFog.No wind99%30.02 "Hg1 mi
5:58 AM46 °FFog.No wind96%30.01 "Hg5 mi
4:58 AM46 °FFog.No wind93%30.01 "Hg10 mi
3:58 AM44 °FFog.No wind96%30.01 "Hg10 mi
2:58 AM44 °FFog.2 mph97%30.02 "Hg10 mi
1:58 AM46 °FFog.No wind93%30.02 "Hg10 mi
12:58 AM49 °FClear.No wind91%30.01 "Hg10 mi
11:58 PM
Sep 30
49 °FClear.1 mph89%30.01 "Hg10 mi
10:58 PM49 °FClear.No wind88%30.01 "Hg10 mi
9:58 PM51 °FClear.6 mph84%30.00 "Hg10 mi
8:58 PM54 °FClear.8 mph80%29.99 "Hg10 mi
Weather by CustomWeather, © 2014

See weather overviewHow to use our weather pages